Location: Centerville
(32.8776°N, 96.6203°W)
Time: 02:16:45
(UTC+00:00)

Cosmos 1470 - Pass Details

Date: 17 June 2021
Orbit: 519 x 542 km, 82.5° (Epoch: 27 July)

Event Time Altitude Azimuth Distance (km) Brightness Sun altitude
Rises 02:34:04 0° 7° (N) 2,702 6.8 -10.9°
Reaches altitude 10° 02:36:28 10° 19° (NNE) 1,804 5.7 -11.3°
Maximum altitude 02:39:53 27° 79° (E) 1,047 3.9 -11.9°
Enters shadow 02:41:48 19° 122° (ESE) 1,327 4.1 -12.2°
